This is the latest recevied weather packets stored in our database for station/object N9OJR. If no packets are shown the sender has not sent any weather packets the latest 10 day(s).
| Time | Temp. | Humidity | Pressure | Rain* | Wind** | Luminosity | Snow |
|---|---|---|---|---|---|---|---|
| 1777132385 | 12.78° C | 99% | 1007.6 hPa | 0 mm | - | 138 W/m² | - |
| 1777132082 | 12.78° C | 99% | 1007.4 hPa | 0 mm | - | 160 W/m² | - |
| 1777131777 | 12.22° C | 99% | 1007.4 hPa | 0 mm | - | 193 W/m² | - |
| 1777131475 | 12.22° C | 99% | 1007.3 hPa | 0 mm | - | 98 W/m² | - |
| 1777131174 | 12.22° C | 99% | 1007.6 hPa | 0 mm | - | 157 W/m² | - |
| 1777130869 | 12.22° C | 99% | 1007.4 hPa | 0 mm | - | 157 W/m² | - |
| 1777130565 | 12.22° C | 99% | 1007.2 hPa | 0 mm | - | 145 W/m² | - |
| 1777130261 | 12.22° C | 99% | 1007.3 hPa | 0 mm | - | 207 W/m² | - |
| 1777129958 | 12.22° C | 99% | 1007.2 hPa | 0 mm | - | 196 W/m² | - |
| 1777129651 | 12.22° C | 99% | 1007.2 hPa | 0 mm | - | 177 W/m² | - |
| 1777129347 | 12.22° C | 99% | 1007 hPa | 0 mm | - | 123 W/m² | - |
| 1777129042 | 12.22° C | 99% | 1007 hPa | 0 mm | - | 116 W/m² | - |
| 1777128738 | 12.22° C | 99% | 1006.9 hPa | 0 mm | - | 130 W/m² | - |
| 1777128436 | 12.22° C | 99% | 1006.8 hPa | 0 mm | - | 98 W/m² | - |
| 1777128133 | 12.78° C | 99% | 1006.8 hPa | 0 mm | - | 73 W/m² | - |
| 1777127830 | 12.78° C | 99% | 1006.7 hPa | 0 mm | - | 77 W/m² | - |
| 1777127528 | 12.78° C | 99% | 1006.6 hPa | 0 mm | - | 90 W/m² | - |
| 1777127223 | 12.78° C | 99% | 1006.5 hPa | 0 mm | - | 72 W/m² | - |
| 1777126920 | 12.78° C | 99% | 1006.8 hPa | 0 mm | - | 74 W/m² | - |
| 1777126616 | 12.78° C | 99% | 1006.6 hPa | 0 mm | - | 67 W/m² | - |
| 1777126312 | 12.78° C | 99% | 1006.5 hPa | 0 mm | - | 76 W/m² | - |
| 1777126007 | 12.78° C | 99% | 1006.5 hPa | 0 mm | - | 77 W/m² | - |
| 1777125705 | 12.78° C | 99% | 1006.4 hPa | 0 mm | - | 55 W/m² | - |
| 1777125401 | 12.78° C | 99% | 1006.4 hPa | 0 mm | - | 54 W/m² | - |
| 1777125096 | 12.78° C | 99% | 1006.4 hPa | 0 mm | - | 55 W/m² | - |
* Rain latest hour (hover to see other rain measurements)
** Current wind speed in m/s (hover to see current wind gust speed)